Weather in San Pedro Sula

Honduras     15°30′21″N   88°01′38″W
temp.,
°C
wind,
m/s
gust,
m/s
humid.,
%
clouds,
%
prec.,
mm/h
press.,
hPa
HPBL,
m
14 april, wed
wed1400:00+23nnw1195100 1.9 101235
03:00+22wsw1197100 1.9 101145
06:00+22wsw119596 3.4 101335
09:00+27s117597 0.6 1015678
12:00+30nne3360100 2.2 10131329
15:00+28n4571100 0.9 1010559
18:00+25n3585100 0.9 1011332
21:00+23nnw2391100 0.0 101385
15 april, thu
thu1500:00+22nnw1194100 0.1 101224
03:00+22nw0194100 0.1 101119
06:00+22sw119539 0.3 101237
09:00+28ese117028 0.6 1013853
12:00+31n225472 2.4 10111456
15:00+30n4462100 1.8 1008793
18:00+25n348690 2.2 1009279
21:00+23n2295100 0.1 101152
16 april, fri
fri1600:00+22nnw1195100 0.7 101120
03:00+22w1195100 0.1 100913
06:00+22sw11958 0.1 101133
09:00+28s226591 0.0 1011761
12:00+35se124194 0.1 10082030
15:00+31n545765 0.2 1005706
18:00+26nne247895 0.3 1007118
21:00+24nw1192100 0.1 100914
17 april, sat
sat1700:00+23sw229194 0.3 100927
03:00+23sw22925 0.0 100735
06:00+23sw238547 0.0 100959
09:00+31s355012 0.0 1010862
12:00+36sse33335 0.0 10072107
15:00+37nne443017 0.0 10042780
18:00+27nne35702 0.0 1007235
21:00+26ese00710 0.1 100912
18 april, sun
sun1800:00+24sw22775 0.1 100937
03:00+24wsw22775 0.0 100818
06:00+24sw2275100 0.0 101040
09:00+31s224748 0.0 10111012
12:00+37ne113494 0.0 10092475
15:00+34nne44477 0.1 10061151
18:00+27nne357599 0.4 1008238
21:00+24nnw1183100 1.4 101216